Rockwood, MI

3:38 AM EST on January 22, 2017 (GMT -0500)
Grosse Ile Municipal

Weather History for KONZ - October, 2013

Change the Weather History Date:

Monday, October 21, 2013

  Actual Average (KDTW) Record (KDTW)
Temperature  
Mean Temperature 50 °F -  
Max Temperature 57 °F 59 °F 81 °F (1947)
Min Temperature 42 °F 40 °F 17 °F (1974)
Degree Days  
Heating Degree Days 16    
Moisture  
Dew Point 44 °F    
Average Humidity 71    
Maximum Humidity 88    
Minimum Humidity 59    
Precipitation  
Precipitation 0.05 in - - ()
Sea Level Pressure  
Sea Level Pressure 29.85 in    
Wind  
Wind Speed 12 mph (SW)    
Max Wind Speed 17 mph    
Max Gust Speed 26 mph    
Visibility 10 miles    
Events Rain    
Averages and records for this station are not official NWS values.
T = Trace of Precipitation, MM = Missing Value Source: NWS Daily Summary

Daily Weather History Graph

Daily Weather History Graph

Search for Another Location

Airport or City:

Trip Planner

Search our weather history database for the weather conditions in past years. The results will help you decide how hot, cold, wet, or windy it might be!

Date:

Astronomy

Oct. 21, 2013 Rise Set
Actual Time 7:52 AM EDT 6:41 PM EDT
Civil Twilight 7:24 AM EDT 7:09 PM EDT
Nautical Twilight 6:51 AM EDT 7:42 PM EDT
Astronomical Twilight 6:19 AM EDT 8:14 PM EDT
Moon 8:30 PM EDT (10/21) 10:28 AM EDT (10/21)
Length of Visible Light 11h 45m
Length of Day
10h 48m
Waning Gibbous, 93% of the Moon is Illuminated
Oct 21
Waning Gibbous
Oct 26
Last Quarter
Nov 3
New
Nov 10
First Quarter
Nov 17
Full

Hourly Weather History & Observations

Time (EDT) Temp. Windchill Dew Point Humidity Pressure Visibility Wind Dir Wind Speed Gust Speed Precip Events Conditions
12:14 AM 57.2 °F - 44.6 °F 63% 29.86 in 10.0 mi SSW 17.3 mph - N/A   Scattered Clouds
12:33 AM 57.2 °F - 44.6 °F 63% 29.86 in 10.0 mi SSW 17.3 mph 23.0 mph N/A   Mostly Cloudy
12:54 AM 57.2 °F - 42.8 °F 59% 29.86 in 10.0 mi SSW 15.0 mph 23.0 mph N/A   Overcast
1:14 AM 57.2 °F - 42.8 °F 59% 29.85 in 10.0 mi SW 15.0 mph 26.5 mph N/A   Overcast
1:34 AM 55.4 °F - 42.8 °F 63% 29.85 in 10.0 mi SSW 16.1 mph 25.3 mph N/A   Overcast
1:54 AM 55.4 °F - 42.8 °F 63% 29.86 in 10.0 mi SSW 15.0 mph 21.9 mph N/A   Overcast
2:15 AM 55.4 °F - 42.8 °F 63% 29.85 in 10.0 mi SSW 17.3 mph 21.9 mph N/A   Mostly Cloudy
2:34 AM 55.4 °F - 42.8 °F 63% 29.86 in 10.0 mi SW 15.0 mph 21.9 mph N/A   Overcast
2:54 AM 55.4 °F - 42.8 °F 63% 29.86 in 10.0 mi SSW 12.7 mph 17.3 mph N/A   Scattered Clouds
3:14 AM 55.4 °F - 42.8 °F 63% 29.86 in 10.0 mi SSW 11.5 mph - N/A   Clear
3:34 AM 55.4 °F - 42.8 °F 63% 29.86 in 10.0 mi SSW 12.7 mph - N/A   Scattered Clouds
3:54 AM 55.4 °F - 42.8 °F 63% 29.85 in 10.0 mi SSW 11.5 mph 18.4 mph N/A   Scattered Clouds
4:14 AM 55.4 °F - 42.8 °F 63% 29.85 in 10.0 mi SSW 12.7 mph 17.3 mph N/A   Mostly Cloudy
4:34 AM 53.6 °F - 42.8 °F 67% 29.86 in 10.0 mi SSW 13.8 mph 20.7 mph N/A   Scattered Clouds
4:54 AM 53.6 °F - 42.8 °F 67% 29.86 in 10.0 mi SSW 15.0 mph 19.6 mph N/A   Clear
5:14 AM 53.6 °F - 42.8 °F 67% 29.85 in 10.0 mi SSW 12.7 mph 19.6 mph N/A   Clear
5:34 AM 53.6 °F - 42.8 °F 67% 29.85 in 10.0 mi SSW 13.8 mph - N/A   Clear
5:54 AM 53.6 °F - 42.8 °F 67% 29.85 in 10.0 mi SSW 13.8 mph 17.3 mph N/A   Clear
6:14 AM 51.8 °F - 42.8 °F 71% 29.85 in 10.0 mi SSW 13.8 mph 18.4 mph N/A   Clear
6:34 AM 51.8 °F - 42.8 °F 71% 29.85 in 10.0 mi SSW 12.7 mph 18.4 mph N/A   Clear
6:54 AM 51.8 °F - 42.8 °F 71% 29.85 in 10.0 mi SSW 12.7 mph - N/A   Clear
7:14 AM 51.8 °F - 42.8 °F 71% 29.85 in 10.0 mi SSW 11.5 mph - N/A   Mostly Cloudy
7:34 AM 51.8 °F - 42.8 °F 71% 29.85 in 10.0 mi SSW 11.5 mph 19.6 mph N/A   Mostly Cloudy
7:54 AM 51.8 °F - 42.8 °F 71% 29.86 in 10.0 mi SSW 11.5 mph 19.6 mph N/A   Scattered Clouds
8:14 AM 51.8 °F - 42.8 °F 71% 29.87 in 10.0 mi SSW 10.4 mph 16.1 mph N/A   Scattered Clouds
8:34 AM 51.8 °F - 42.8 °F 71% 29.87 in 10.0 mi SSW 10.4 mph 17.3 mph N/A   Clear
8:54 AM 51.8 °F - 42.8 °F 71% 29.87 in 10.0 mi SSW 10.4 mph - N/A   Scattered Clouds
9:14 AM 51.8 °F - 42.8 °F 71% 29.88 in 10.0 mi SSW 9.2 mph - N/A   Clear
9:34 AM 51.8 °F - 42.8 °F 71% 29.88 in 10.0 mi SSW 10.4 mph - N/A   Scattered Clouds
9:54 AM 53.6 °F - 42.8 °F 67% 29.87 in 10.0 mi SSW 9.2 mph - N/A   Scattered Clouds
10:14 AM 53.6 °F - 44.6 °F 72% 29.87 in 10.0 mi SSW 8.1 mph - N/A   Scattered Clouds
10:34 AM 53.6 °F - 44.6 °F 72% 29.87 in 10.0 mi SW 12.7 mph - N/A   Clear
10:54 AM 55.4 °F - 44.6 °F 67% 29.87 in 10.0 mi SW 10.4 mph - N/A   Clear
11:14 AM 55.4 °F - 44.6 °F 67% 29.87 in 10.0 mi SSW 11.5 mph - N/A   Clear
11:34 AM 55.4 °F - 44.6 °F 67% 29.87 in 10.0 mi SSW 11.5 mph - N/A   Clear
11:54 AM 55.4 °F - 44.6 °F 67% 29.87 in 10.0 mi SW 9.2 mph - N/A   Clear
12:14 PM 55.4 °F - 44.6 °F 67% 29.87 in 10.0 mi SW 9.2 mph - N/A   Scattered Clouds
12:34 PM 55.4 °F - 44.6 °F 67% 29.87 in 10.0 mi SW 8.1 mph - N/A   Overcast
12:54 PM 57.2 °F - 44.6 °F 63% 29.86 in 10.0 mi SSW 10.4 mph - N/A   Overcast
1:14 PM 57.2 °F - 44.6 °F 63% 29.85 in 10.0 mi SSW 8.1 mph - N/A   Overcast
1:33 PM 57.2 °F - 46.4 °F 67% 29.84 in 10.0 mi SSW 10.4 mph - N/A   Overcast
1:54 PM 55.4 °F - 48.2 °F 77% 29.83 in 10.0 mi South 16.1 mph - N/A Rain Light Rain
2:14 PM 55.4 °F - 46.4 °F 72% 29.82 in 10.0 mi SSW 13.8 mph - N/A   Overcast
2:34 PM 55.4 °F - 46.4 °F 72% 29.82 in 10.0 mi SSW 8.1 mph - N/A   Overcast
2:54 PM 55.4 °F - 46.4 °F 72% 29.81 in 10.0 mi SW 8.1 mph - N/A Rain Rain
3:14 PM 57.2 °F - 46.4 °F 67% 29.81 in 10.0 mi SW 6.9 mph - N/A   Overcast
3:34 PM 57.2 °F - 46.4 °F 67% 29.81 in 10.0 mi SW 8.1 mph - N/A   Overcast
3:54 PM 57.2 °F - 46.4 °F 67% 29.81 in 10.0 mi WSW 6.9 mph - N/A   Light Drizzle
4:14 PM 55.4 °F - 46.4 °F 72% 29.81 in 10.0 mi West 9.2 mph - N/A Rain Rain
4:34 PM 53.6 °F - 48.2 °F 82% 29.81 in 7.0 mi WSW 9.2 mph 18.4 mph N/A Rain Rain
4:54 PM 53.6 °F - 48.2 °F 82% 29.81 in 10.0 mi SSW 6.9 mph - N/A Rain Rain
5:14 PM 53.6 °F - 48.2 °F 82% 29.82 in 5.0 mi West 8.1 mph - 0.01 in Rain Rain
5:34 PM 51.8 °F - 48.2 °F 88% 29.81 in 10.0 mi WSW 8.1 mph - 0.03 in Rain Light Rain
5:54 PM 51.8 °F - 48.2 °F 88% 29.81 in 10.0 mi SW 10.4 mph 18.4 mph 0.04 in Rain Light Rain
6:14 PM 51.8 °F - 48.2 °F 88% 29.82 in 10.0 mi SW 11.5 mph 17.3 mph N/A Rain Light Rain
6:34 PM 51.8 °F - 46.4 °F 82% 29.82 in 10.0 mi SW 11.5 mph 16.1 mph 0.01 in Rain Light Rain
6:54 PM 51.8 °F - 46.4 °F 82% 29.83 in 10.0 mi SW 8.1 mph 17.3 mph 0.01 in Rain Light Rain
7:14 PM 51.8 °F - 46.4 °F 82% 29.82 in 10.0 mi WSW 6.9 mph - N/A   Overcast
7:34 PM 51.8 °F - 46.4 °F 82% 29.82 in 10.0 mi WSW 6.9 mph - N/A   Overcast
7:54 PM 51.8 °F - 46.4 °F 82% 29.83 in 10.0 mi West 5.8 mph - N/A   Overcast
8:14 PM 51.8 °F - 46.4 °F 82% 29.83 in 10.0 mi West 5.8 mph - N/A   Overcast
8:34 PM 50.0 °F - 46.4 °F 87% 29.83 in 10.0 mi WNW 6.9 mph - N/A   Overcast
8:54 PM 48.2 °F - 42.8 °F 82% 29.84 in 10.0 mi West 13.8 mph 20.7 mph N/A   Overcast
9:14 PM 48.2 °F - 41.0 °F 76% 29.84 in 10.0 mi West 12.7 mph 18.4 mph N/A   Overcast
9:34 PM 48.2 °F - 39.2 °F 71% 29.85 in 10.0 mi WNW 13.8 mph 19.6 mph N/A   Overcast
9:54 PM 46.4 °F 41.9 °F 37.4 °F 71% 29.85 in 10.0 mi West 9.2 mph - N/A   Overcast
10:14 PM 46.4 °F 41.5 °F 37.4 °F 71% 29.85 in 10.0 mi West 10.4 mph - N/A   Mostly Cloudy
10:34 PM 44.6 °F 42.2 °F 37.4 °F 76% 29.85 in 10.0 mi West 4.6 mph - N/A   Scattered Clouds
10:54 PM 44.6 °F 40.7 °F 35.6 °F 71% 29.85 in 10.0 mi West 6.9 mph - N/A   Clear
11:14 PM 44.6 °F 40.7 °F 35.6 °F 71% 29.85 in 10.0 mi WSW 6.9 mph - N/A   Clear
11:34 PM 42.8 °F 40.1 °F 35.6 °F 76% 29.85 in 10.0 mi SW 4.6 mph - N/A   Clear
11:54 PM 42.8 °F 39.3 °F 35.6 °F 76% 29.85 in 10.0 mi SW 5.8 mph - N/A   Clear